Hourly Data Report for February 09, 2016

All times are specified in Local Standard Time (LST). Add 1 hour to adjust for Daylight Saving Time where and when it is observed.

Metadata including Station Name, Province, Latitude, Longitude, Elevation, Climate ID, WMO ID, TC ID
GRANBY
QUEBEC
Latitude: 45°22'22.000" N Longitude: 72°46'26.000" W Elevation: 86.00 m
Climate ID: 7022802 WMO ID: TC ID: MGB
Hourly Data Report for February 9, 2016
Temp Definition
°C

Dew Point Temp Definition
°C

Rel Hum Definition
%

Wind Dir Definition
10's deg
Wind Spd Definition
km/h

Visibility Definition
km

Stn Press Definition
kPa

Hmdx Definition

Wind Chill Definition

Weather Definition

00:00 -6.4 -13.1 59 9 5 99.89 -9 LegendNANA
01:00 -7.3 -10.8 76 5 5 99.84 -10 LegendNANA
02:00 -7.7 -10.0 84 7 6 99.82 -11 LegendNANA
03:00 -8.1 -10.0 86 4 8 99.76 -12 LegendNANA
04:00 -8.3 -9.9 88 3 7 99.71 -12 LegendNANA
05:00 -8.5 -10.3 87 4 8 99.66 -13 LegendNANA
06:00 -8.6 -10.5 87 4 8 99.62 -13 LegendNANA
07:00 -8.6 -10.7 85 5 6 99.59 -12 LegendNANA
08:00 -8.5 -10.7 84 4 7 99.58 -12 LegendNANA
09:00 -7.6 -10.3 81 5 6 99.52 -11 LegendNANA
10:00 -6.5 -10.1 75 4 5 99.48 -9 LegendNANA
11:00 -5.3 -9.5 72 13 6 99.46 -8 LegendNANA
12:00 -4.9 -9.0 73 6 3 99.38 -6 LegendNANA
13:00 -4.2 -7.2 80 1 5 99.28 -6 LegendNANA
14:00 -3.9 -7.6 75 3 6 99.18 -7 LegendNANA
15:00 -4.2 -7.4 78 1 8 99.11 -8 LegendNANA
16:00 -4.6 -7.6 80 1 7 99.12 -8 LegendNANA
17:00 -5.8 -8.4 82 1 6 99.13 -9 LegendNANA
18:00 -6.4 -8.7 83 3 7 99.17 -10 LegendNANA
19:00 -6.7 -8.9 84 2 4 99.18 -9 LegendNANA
20:00 -7.0 -9.6 82 4 7 99.15 -11 LegendNANA
21:00 -6.9 -9.2 84 3 5 99.09 -9 LegendNANA
22:00 -6.8 -9.2 83 4 3 99.04 -8 LegendNANA
23:00 -7.2 -8.7 88 1 2 99.01 -8 LegendNANA

Notes on Data Quality.

Legend
  • E = Estimated
  • M = Missing
  • NA = Not Available
  • ‡ = Partner data that is not subject to review by the National Climate Archives